Time,TemperatureF,DewpointF,PressureIn,WindDirection,WindDirectionDegrees,WindSpeedMPH,WindSpeedGustMPH,Humidity,HourlyPrecipIn,Conditions,Clouds,dailyrainin,SoftwareType,DateUTC
2013-04-09 00:01:00,42.9,39.9,30.28,NE,45,0.0,0.0,89,0.00,,FEW060,0.00,VWS V14.01,2013-04-09 07:01:00,
2013-04-09 00:07:00,42.9,39.9,30.28,NE,45,0.0,0.0,89,0.00,,FEW060,0.00,VWS V14.01,2013-04-09 07:07:00,
2013-04-09 00:12:00,42.9,39.9,30.28,NE,45,0.0,0.0,89,0.00,,FEW060,0.00,VWS V14.01,2013-04-09 07:12:00,
2013-04-09 00:17:00,42.6,39.6,30.29,NE,45,0.0,0.0,89,0.00,,FEW060,0.00,VWS V14.01,2013-04-09 07:17:00,
2013-04-09 00:23:00,42.6,39.6,30.29,NE,45,0.0,0.0,89,0.00,,FEW060,0.00,VWS V14.01,2013-04-09 07:23:00,
2013-04-09 00:28:00,42.6,39.6,30.29,NE,45,0.0,0.0,89,0.00,,FEW060,0.00,VWS V14.01,2013-04-09 07:28:00,
2013-04-09 00:34:00,42.6,39.6,30.30,NE,45,0.0,0.0,89,0.00,,FEW060,0.00,VWS V14.01,2013-04-09 07:34:00,
2013-04-09 00:39:00,42.6,39.6,30.29,NE,45,0.0,0.0,89,0.00,,FEW060,0.00,VWS V14.01,2013-04-09 07:39:00,
2013-04-09 00:45:00,42.6,39.6,30.29,NE,45,0.0,0.0,89,0.00,,FEW060,0.00,VWS V14.01,2013-04-09 07:45:00,
2013-04-09 00:50:00,42.8,39.8,30.29,NE,45,0.0,0.0,89,0.00,,FEW060,0.00,VWS V14.01,2013-04-09 07:50:00,
2013-04-09 00:55:00,42.9,39.9,30.29,East,90,0.0,0.0,89,0.00,,FEW060,0.00,VWS V14.01,2013-04-09 07:55:00,
2013-04-09 01:00:00,42.9,39.9,30.29,East,90,0.0,0.0,89,0.00,,FEW060,0.00,VWS V14.01,2013-04-09 08:00:00,
2013-04-09 01:05:00,42.9,39.9,30.29,East,90,0.0,0.0,89,0.00,,FEW060,0.00,VWS V14.01,2013-04-09 08:05:00,
2013-04-09 01:11:00,42.9,39.9,30.30,ESE,112,0.0,0.0,89,0.00,,FEW060,0.00,VWS V14.01,2013-04-09 08:11:00,
2013-04-09 01:16:00,42.9,39.9,30.29,ESE,112,0.0,0.0,89,0.00,,FEW060,0.00,VWS V14.01,2013-04-09 08:16:00,
2013-04-09 01:21:00,42.8,39.8,30.30,ESE,112,0.0,0.0,89,0.00,,FEW060,0.00,VWS V14.01,2013-04-09 08:21:00,
2013-04-09 01:26:00,42.6,39.6,30.30,ESE,112,0.0,0.0,89,0.00,,FEW060,0.00,VWS V14.01,2013-04-09 08:26:00,
2013-04-09 01:32:00,42.6,39.6,30.30,ESE,112,0.0,0.0,89,0.00,,FEW060,0.00,VWS V14.01,2013-04-09 08:32:00,
2013-04-09 01:37:00,42.6,39.6,30.31,ESE,112,0.0,0.0,89,0.00,,FEW060,0.00,VWS V14.01,2013-04-09 08:37:00,
2013-04-09 01:42:00,42.6,39.6,30.31,ESE,112,0.0,0.0,89,0.00,,FEW060,0.00,VWS V14.01,2013-04-09 08:42:00,
2013-04-09 01:48:00,42.4,39.4,30.31,ESE,112,0.0,0.0,89,0.00,,FEW060,0.00,VWS V14.01,2013-04-09 08:48:00,
2013-04-09 01:53:00,42.4,39.4,30.31,ESE,112,0.0,0.0,89,0.00,,FEW060,0.00,VWS V14.01,2013-04-09 08:53:00,
2013-04-09 01:58:00,42.0,39.0,30.31,ESE,112,0.0,0.0,89,0.00,,FEW060,0.00,VWS V14.01,2013-04-09 08:58:00,
2013-04-09 02:03:00,41.9,38.9,30.31,ESE,112,0.0,0.0,89,0.00,,CLR,0.00,VWS V14.01,2013-04-09 09:03:00,
2013-04-09 02:08:00,41.9,38.9,30.31,ESE,112,0.0,0.0,89,0.00,,CLR,0.00,VWS V14.01,2013-04-09 09:08:00,
2013-04-09 02:14:00,41.7,38.7,30.31,ESE,112,0.0,0.0,89,0.00,,CLR,0.00,VWS V14.01,2013-04-09 09:14:00,
2013-04-09 02:20:00,41.5,38.5,30.31,ESE,112,0.0,0.0,89,0.00,,CLR,0.00,VWS V14.01,2013-04-09 09:20:00,
2013-04-09 02:25:00,41.5,38.5,30.31,ESE,112,0.0,0.0,89,0.00,,CLR,0.00,VWS V14.01,2013-04-09 09:25:00,
2013-04-09 02:30:00,41.3,38.3,30.30,SE,135,0.0,0.0,89,0.00,,CLR,0.00,VWS V14.01,2013-04-09 09:30:00,
2013-04-09 02:35:00,41.3,38.3,30.30,ENE,68,0.0,0.0,89,0.00,,CLR,0.00,VWS V14.01,2013-04-09 09:35:00,
2013-04-09 02:40:00,41.1,38.1,30.30,ENE,68,0.0,0.0,89,0.00,,CLR,0.00,VWS V14.01,2013-04-09 09:40:00,
2013-04-09 02:45:00,41.1,38.1,30.30,ENE,68,0.0,0.0,89,0.00,,CLR,0.00,VWS V14.01,2013-04-09 09:45:00,
2013-04-09 02:50:00,41.1,38.1,30.31,ENE,68,0.0,0.0,89,0.00,,CLR,0.00,VWS V14.01,2013-04-09 09:50:00,
2013-04-09 02:55:00,41.0,38.0,30.31,ENE,68,0.0,0.0,89,0.00,,CLR,0.00,VWS V14.01,2013-04-09 09:55:00,
2013-04-09 03:00:00,40.8,37.8,30.31,ENE,68,0.0,0.0,89,0.00,,CLR,0.00,VWS V14.01,2013-04-09 10:00:00,
2013-04-09 03:06:00,40.8,37.8,30.31,ENE,68,0.0,0.0,89,0.00,,CLR,0.00,VWS V14.01,2013-04-09 10:06:00,
2013-04-09 03:11:00,40.8,37.8,30.31,ENE,68,0.0,0.0,89,0.00,,CLR,0.00,VWS V14.01,2013-04-09 10:11:00,
2013-04-09 03:17:00,40.8,37.8,30.30,ENE,68,0.0,0.0,89,0.00,,CLR,0.00,VWS V14.01,2013-04-09 10:17:00,
2013-04-09 03:22:00,40.8,37.8,30.30,South,180,0.0,0.0,89,0.00,,CLR,0.00,VWS V14.01,2013-04-09 10:22:00,
2013-04-09 03:27:00,40.8,37.8,30.30,South,180,0.0,0.0,89,0.00,,CLR,0.00,VWS V14.01,2013-04-09 10:27:00,
2013-04-09 03:32:00,40.6,37.6,30.30,East,90,0.0,0.0,89,0.00,,CLR,0.00,VWS V14.01,2013-04-09 10:32:00,
2013-04-09 03:38:00,40.6,37.6,30.30,East,90,0.0,0.0,89,0.00,,CLR,0.00,VWS V14.01,2013-04-09 10:38:00,
2013-04-09 03:43:00,40.6,37.6,30.30,East,90,0.0,0.0,89,0.00,,CLR,0.00,VWS V14.01,2013-04-09 10:43:00,
2013-04-09 03:48:00,40.6,37.6,30.31,East,90,0.0,0.0,89,0.00,,CLR,0.00,VWS V14.01,2013-04-09 10:48:00,
2013-04-09 03:54:00,40.6,37.9,30.31,East,90,0.0,0.0,90,0.00,,CLR,0.00,VWS V14.01,2013-04-09 10:54:00,
2013-04-09 03:59:00,40.6,37.9,30.31,East,90,0.0,0.0,90,0.00,,CLR,0.00,VWS V14.01,2013-04-09 10:59:00,
2013-04-09 04:05:00,40.6,37.9,30.31,East,90,0.0,0.0,90,0.00,,CLR,0.00,VWS V14.01,2013-04-09 11:05:00,
2013-04-09 04:10:00,40.6,37.9,30.31,East,90,0.0,0.0,90,0.00,,CLR,0.00,VWS V14.01,2013-04-09 11:10:00,
2013-04-09 04:15:00,40.6,37.9,30.32,East,90,0.0,0.0,90,0.00,,CLR,0.00,VWS V14.01,2013-04-09 11:15:00,
2013-04-09 04:20:00,40.6,37.9,30.31,East,90,0.0,0.0,90,0.00,,CLR,0.00,VWS V14.01,2013-04-09 11:20:00,
2013-04-09 04:25:00,40.6,37.9,30.32,East,90,0.0,0.0,90,0.00,,CLR,0.00,VWS V14.01,2013-04-09 11:25:00,
2013-04-09 04:30:00,40.6,37.9,30.32,ESE,112,0.0,0.0,90,0.00,,CLR,0.00,VWS V14.01,2013-04-09 11:30:00,
2013-04-09 04:35:00,40.6,37.9,30.32,ESE,112,0.0,0.0,90,0.00,,CLR,0.00,VWS V14.01,2013-04-09 11:35:00,
2013-04-09 04:40:00,40.6,37.9,30.32,ESE,112,0.0,0.0,90,0.00,,CLR,0.00,VWS V14.01,2013-04-09 11:40:00,
2013-04-09 04:45:00,40.6,37.9,30.32,ESE,112,0.0,0.0,90,0.00,,CLR,0.00,VWS V14.01,2013-04-09 11:45:00,
2013-04-09 04:50:00,40.6,37.9,30.32,SE,135,0.0,0.0,90,0.00,,CLR,0.00,VWS V14.01,2013-04-09 11:50:00,
2013-04-09 04:55:00,40.6,37.9,30.32,SE,135,0.0,0.0,90,0.00,,CLR,0.00,VWS V14.01,2013-04-09 11:55:00,
2013-04-09 05:00:00,40.8,38.1,30.32,SE,135,0.0,0.0,90,0.00,,CLR,0.00,VWS V14.01,2013-04-09 12:00:00,
2013-04-09 05:05:00,40.8,38.1,30.32,SE,135,0.0,0.0,90,0.00,,CLR,0.00,VWS V14.01,2013-04-09 12:05:00,
2013-04-09 05:10:00,40.8,38.1,30.32,SE,135,0.0,0.0,90,0.00,,CLR,0.00,VWS V14.01,2013-04-09 12:10:00,
2013-04-09 05:15:00,40.8,38.1,30.32,SE,135,0.0,0.0,90,0.00,,CLR,0.00,VWS V14.01,2013-04-09 12:15:00,
2013-04-09 05:20:00,40.8,38.1,30.32,SE,135,0.0,0.0,90,0.00,,CLR,0.00,VWS V14.01,2013-04-09 12:20:00,
2013-04-09 05:25:00,40.8,38.1,30.32,SE,135,0.0,0.0,90,0.00,,CLR,0.00,VWS V14.01,2013-04-09 12:25:00,
2013-04-09 05:30:00,40.8,38.1,30.32,SE,135,0.0,0.0,90,0.00,,CLR,0.00,VWS V14.01,2013-04-09 12:30:00,
2013-04-09 05:36:00,40.6,37.9,30.32,SE,135,0.0,0.0,90,0.00,,CLR,0.00,VWS V14.01,2013-04-09 12:36:00,
2013-04-09 05:42:00,40.6,37.9,30.32,SE,135,0.0,0.0,90,0.00,,CLR,0.00,VWS V14.01,2013-04-09 12:42:00,
2013-04-09 05:47:00,40.6,37.9,30.32,SE,135,0.0,0.0,90,0.00,,CLR,0.00,VWS V14.01,2013-04-09 12:47:00,
2013-04-09 05:52:00,40.6,37.9,30.32,ESE,112,0.0,0.0,90,0.00,,CLR,0.00,VWS V14.01,2013-04-09 12:52:00,
2013-04-09 05:58:00,40.6,37.9,30.32,SSE,158,0.0,0.0,90,0.00,,CLR,0.00,VWS V14.01,2013-04-09 12:58:00,
2013-04-09 06:03:00,40.6,37.9,30.32,SE,135,0.0,0.0,90,0.00,,CLR,0.00,VWS V14.01,2013-04-09 13:03:00,
2013-04-09 06:09:00,40.6,37.9,30.32,SSE,158,0.0,0.0,90,0.00,,CLR,0.00,VWS V14.01,2013-04-09 13:09:00,
2013-04-09 06:14:00,40.6,37.9,30.32,SSE,158,0.0,0.0,90,0.00,,CLR,0.00,VWS V14.01,2013-04-09 13:14:00,
2013-04-09 06:19:00,40.6,37.9,30.32,ESE,112,0.0,0.0,90,0.00,,CLR,0.00,VWS V14.01,2013-04-09 13:19:00,
2013-04-09 06:24:00,40.6,37.9,30.32,ENE,68,0.0,0.0,90,0.00,,CLR,0.00,VWS V14.01,2013-04-09 13:24:00,
2013-04-09 06:30:00,40.6,37.9,30.32,ENE,68,0.0,0.0,90,0.00,,CLR,0.00,VWS V14.01,2013-04-09 13:30:00,
2013-04-09 06:35:00,40.8,38.1,30.32,SE,135,0.0,0.0,90,0.00,,CLR,0.00,VWS V14.01,2013-04-09 13:35:00,
2013-04-09 06:40:00,40.8,38.1,30.32,NE,45,0.0,0.0,90,0.00,,CLR,0.00,VWS V14.01,2013-04-09 13:40:00,
2013-04-09 06:45:00,40.8,38.1,30.33,NE,45,0.0,0.0,90,0.00,,CLR,0.00,VWS V14.01,2013-04-09 13:45:00,
2013-04-09 06:50:00,40.8,38.1,30.33,NE,45,0.0,0.0,90,0.00,,CLR,0.00,VWS V14.01,2013-04-09 13:50:00,
2013-04-09 06:55:00,40.8,38.1,30.33,SE,135,0.0,0.0,90,0.00,,CLR,0.00,VWS V14.01,2013-04-09 13:55:00,
2013-04-09 07:00:00,40.8,38.1,30.33,East,90,0.0,0.0,90,0.00,,CLR,0.00,VWS V14.01,2013-04-09 14:00:00,
2013-04-09 07:05:00,40.8,38.1,30.33,SSE,158,0.0,0.0,90,0.00,,CLR,0.00,VWS V14.01,2013-04-09 14:05:00,
2013-04-09 07:10:00,40.8,38.1,30.33,ENE,68,0.0,0.0,90,0.00,,CLR,0.00,VWS V14.01,2013-04-09 14:10:00,
2013-04-09 07:15:00,41.0,38.3,30.33,ENE,68,0.0,0.0,90,0.00,,CLR,0.00,VWS V14.01,2013-04-09 14:15:00,
2013-04-09 07:21:00,41.0,38.3,30.34,ENE,68,0.0,0.0,90,0.00,,CLR,0.00,VWS V14.01,2013-04-09 14:21:00,
2013-04-09 07:27:00,41.1,38.4,30.33,SE,135,0.0,0.0,90,0.00,,CLR,0.00,VWS V14.01,2013-04-09 14:27:00,
2013-04-09 07:32:00,41.3,38.6,30.34,ESE,112,0.0,0.0,90,0.00,,CLR,0.00,VWS V14.01,2013-04-09 14:32:00,
2013-04-09 07:37:00,41.3,38.6,30.34,ESE,112,0.0,0.0,90,0.00,,CLR,0.00,VWS V14.01,2013-04-09 14:37:00,
2013-04-09 07:43:00,41.5,38.8,30.34,ESE,112,0.0,0.0,90,0.00,,CLR,0.00,VWS V14.01,2013-04-09 14:43:00,
2013-04-09 07:48:00,41.7,39.0,30.34,ESE,112,0.0,0.0,90,0.00,,CLR,0.00,VWS V14.01,2013-04-09 14:48:00,
2013-04-09 07:53:00,41.9,39.2,30.34,ESE,112,0.0,0.0,90,0.00,,CLR,0.00,VWS V14.01,2013-04-09 14:53:00,
2013-04-09 07:59:00,41.9,39.2,30.34,ESE,112,0.0,0.0,90,0.00,,CLR,0.00,VWS V14.01,2013-04-09 14:59:00,
2013-04-09 08:04:00,42.2,39.5,30.34,SE,135,0.0,0.0,90,0.00,,CLR,0.00,VWS V14.01,2013-04-09 15:04:00,
2013-04-09 08:10:00,42.4,39.7,30.34,SE,135,0.0,0.0,90,0.00,,CLR,0.00,VWS V14.01,2013-04-09 15:10:00,
2013-04-09 08:15:00,42.4,39.7,30.35,SE,135,0.0,0.0,90,0.00,,CLR,0.00,VWS V14.01,2013-04-09 15:15:00,
2013-04-09 08:20:00,42.6,39.9,30.35,SSE,158,0.0,0.0,90,0.00,,CLR,0.00,VWS V14.01,2013-04-09 15:20:00,
2013-04-09 08:25:00,42.9,40.2,30.35,ESE,112,0.0,0.0,90,0.00,,CLR,0.00,VWS V14.01,2013-04-09 15:25:00,
2013-04-09 08:30:00,42.9,40.2,30.34,ESE,112,0.0,0.0,90,0.00,,CLR,0.00,VWS V14.01,2013-04-09 15:30:00,
2013-04-09 08:35:00,43.3,40.3,30.34,SE,135,0.0,0.0,89,0.00,,CLR,0.00,VWS V14.01,2013-04-09 15:35:00,
2013-04-09 08:40:00,44.0,41.3,30.34,SSE,158,0.0,0.0,90,0.00,,CLR,0.00,VWS V14.01,2013-04-09 15:40:00,
2013-04-09 08:45:00,44.4,41.7,30.34,SE,135,0.0,0.0,90,0.00,,CLR,0.00,VWS V14.01,2013-04-09 15:45:00,
2013-04-09 08:50:00,44.7,41.7,30.34,ESE,112,0.0,0.0,89,0.00,,CLR,0.00,VWS V14.01,2013-04-09 15:50:00,
2013-04-09 08:55:00,45.1,41.8,30.34,SE,135,0.0,0.0,88,0.00,,CLR,0.00,VWS V14.01,2013-04-09 15:55:00,
2013-04-09 09:00:00,45.1,41.8,30.33,East,90,0.0,0.0,88,0.00,,CLR,0.00,VWS V14.01,2013-04-09 16:00:00,
2013-04-09 09:05:00,45.5,42.2,30.33,SSE,158,0.4,0.4,88,0.00,,CLR,0.00,VWS V14.01,2013-04-09 16:05:00,
2013-04-09 09:10:00,46.2,42.8,30.33,SE,135,0.0,1.5,88,0.00,,CLR,0.00,VWS V14.01,2013-04-09 16:10:00,
2013-04-09 09:15:00,46.5,42.8,30.33,SSE,158,0.0,0.0,87,0.00,,CLR,0.00,VWS V14.01,2013-04-09 16:15:00,
2013-04-09 09:20:00,46.7,43.0,30.33,South,180,0.0,0.0,87,0.00,,CLR,0.00,VWS V14.01,2013-04-09 16:20:00,
2013-04-09 09:25:00,47.1,43.4,30.33,SSE,158,0.0,0.0,87,0.00,,CLR,0.00,VWS V14.01,2013-04-09 16:25:00,
2013-04-09 09:30:00,47.3,43.3,30.33,SSE,158,0.0,0.0,86,0.00,,CLR,0.00,VWS V14.01,2013-04-09 16:30:00,
2013-04-09 09:35:00,47.4,43.4,30.34,North,0,0.0,0.2,86,0.00,,CLR,0.00,VWS V14.01,2013-04-09 16:35:00,
2013-04-09 09:40:00,47.1,42.8,30.34,South,180,0.0,0.0,85,0.00,,CLR,0.00,VWS V14.01,2013-04-09 16:40:00,
2013-04-09 09:45:00,47.1,42.8,30.34,NW,315,0.0,0.0,85,0.00,,CLR,0.00,VWS V14.01,2013-04-09 16:45:00,
2013-04-09 09:50:00,46.9,42.6,30.34,NE,45,0.0,0.0,85,0.00,,CLR,0.00,VWS V14.01,2013-04-09 16:50:00,
2013-04-09 09:55:00,46.5,42.2,30.34,SSE,158,0.0,0.0,85,0.00,,CLR,0.00,VWS V14.01,2013-04-09 16:55:00,
2013-04-09 10:00:00,46.5,42.2,30.34,SSE,158,0.0,0.0,85,0.00,,OVC080,0.00,VWS V14.01,2013-04-09 17:00:00,
2013-04-09 10:05:00,46.2,42.0,30.34,SSE,158,0.0,0.0,85,0.00,,OVC080,0.00,VWS V14.01,2013-04-09 17:05:00,
2013-04-09 10:10:00,46.2,42.0,30.34,East,90,1.7,1.7,85,0.00,,OVC080,0.00,VWS V14.01,2013-04-09 17:10:00,
2013-04-09 10:15:00,46.2,42.0,30.34,SSE,158,0.0,0.0,85,0.00,,OVC080,0.00,VWS V14.01,2013-04-09 17:15:00,
2013-04-09 10:20:00,46.2,42.0,30.35,ESE,112,0.0,0.0,85,0.00,,OVC080,0.00,VWS V14.01,2013-04-09 17:20:00,
2013-04-09 10:25:00,46.2,42.0,30.35,ESE,112,0.0,0.0,85,0.00,,OVC080,0.00,VWS V14.01,2013-04-09 17:25:00,
2013-04-09 10:30:00,46.4,42.1,30.35,SE,135,0.0,0.0,85,0.00,,OVC080,0.00,VWS V14.01,2013-04-09 17:30:00,
2013-04-09 10:36:00,46.5,42.2,30.35,SSE,158,0.0,0.0,85,0.00,,OVC080,0.00,VWS V14.01,2013-04-09 17:36:00,
2013-04-09 10:41:00,46.2,41.6,30.35,SE,135,0.0,0.0,84,0.00,,OVC080,0.00,VWS V14.01,2013-04-09 17:41:00,
2013-04-09 10:46:00,46.2,41.6,30.34,SSE,158,0.0,0.0,84,0.00,,OVC080,0.00,VWS V14.01,2013-04-09 17:46:00,
2013-04-09 10:51:00,46.2,41.6,30.35,SE,135,0.0,0.0,84,0.00,,OVC080,0.00,VWS V14.01,2013-04-09 17:51:00,
2013-04-09 10:57:00,46.5,41.9,30.35,SE,135,3.3,3.3,84,0.00,,OVC080,0.00,VWS V14.01,2013-04-09 17:57:00,
2013-04-09 11:02:00,46.4,41.8,30.35,ESE,112,0.0,0.0,84,0.00,,OVC080,0.00,VWS V14.01,2013-04-09 18:02:00,
2013-04-09 11:07:00,46.5,41.9,30.36,ESE,112,0.0,0.0,84,0.00,,OVC080,0.00,VWS V14.01,2013-04-09 18:07:00,
2013-04-09 11:13:00,46.5,41.9,30.36,SSE,158,0.0,0.0,84,0.00,,OVC080,0.00,VWS V14.01,2013-04-09 18:13:00,
2013-04-09 11:18:00,46.5,41.9,30.36,SSE,158,0.0,0.0,84,0.00,,OVC080,0.00,VWS V14.01,2013-04-09 18:18:00,
2013-04-09 11:24:00,46.9,42.0,30.36,SSW,202,0.0,0.0,83,0.00,,OVC080,0.00,VWS V14.01,2013-04-09 18:24:00,
2013-04-09 11:29:00,46.9,42.0,30.36,WSW,248,0.0,0.0,83,0.00,,OVC080,0.00,VWS V14.01,2013-04-09 18:29:00,
2013-04-09 11:34:00,47.1,42.2,30.35,SSE,158,0.0,0.0,83,0.00,,OVC080,0.00,VWS V14.01,2013-04-09 18:34:00,
2013-04-09 11:39:00,47.3,42.1,30.35,SSW,202,0.0,0.0,82,0.00,,OVC080,0.00,VWS V14.01,2013-04-09 18:39:00,
2013-04-09 11:44:00,47.8,42.6,30.35,SE,135,0.0,0.0,82,0.00,,OVC080,0.00,VWS V14.01,2013-04-09 18:44:00,
2013-04-09 11:49:00,48.3,43.1,30.35,SE,135,0.0,0.0,82,0.00,,OVC080,0.00,VWS V14.01,2013-04-09 18:49:00,
2013-04-09 11:55:00,48.7,43.1,30.35,SW,225,0.0,0.0,81,0.00,,OVC080,0.00,VWS V14.01,2013-04-09 18:55:00,
2013-04-09 12:00:00,48.7,43.1,30.35,SSE,158,0.0,0.0,81,0.00,,OVC080,0.00,VWS V14.01,2013-04-09 19:00:00,
2013-04-09 12:05:00,48.7,42.8,30.35,SE,135,0.0,0.0,80,0.00,,BKN080,0.00,VWS V14.01,2013-04-09 19:05:00,
2013-04-09 12:10:00,48.5,42.6,30.35,SSE,158,0.0,0.0,80,0.00,,BKN080,0.00,VWS V14.01,2013-04-09 19:10:00,
2013-04-09 12:15:00,48.3,42.4,30.35,SE,135,0.0,0.0,80,0.00,,BKN080,0.00,VWS V14.01,2013-04-09 19:15:00,
2013-04-09 12:20:00,48.3,42.4,30.34,SSE,158,0.0,0.0,80,0.00,,BKN080,0.00,VWS V14.01,2013-04-09 19:20:00,
2013-04-09 12:25:00,48.2,42.3,30.34,SE,135,0.0,0.0,80,0.00,,BKN080,0.00,VWS V14.01,2013-04-09 19:25:00,
2013-04-09 12:30:00,48.0,41.8,30.34,South,180,0.0,0.0,79,0.00,,BKN080,0.00,VWS V14.01,2013-04-09 19:30:00,
2013-04-09 12:35:00,48.0,42.1,30.34,SSE,158,0.0,0.0,80,0.00,,BKN080,0.00,VWS V14.01,2013-04-09 19:35:00,
2013-04-09 12:41:00,47.8,41.6,30.34,South,180,0.0,0.0,79,0.00,,BKN080,0.00,VWS V14.01,2013-04-09 19:41:00,
2013-04-09 12:46:00,47.4,41.2,30.34,SSE,158,0.0,0.0,79,0.00,,BKN080,0.00,VWS V14.01,2013-04-09 19:46:00,
2013-04-09 12:52:00,47.8,41.6,30.33,ESE,112,0.0,0.0,79,0.00,,BKN080,0.00,VWS V14.01,2013-04-09 19:52:00,
2013-04-09 12:57:00,48.0,41.8,30.34,WNW,292,0.0,0.0,79,0.00,,BKN080,0.00,VWS V14.01,2013-04-09 19:57:00,
2013-04-09 13:02:00,48.3,42.1,30.34,East,90,0.0,0.0,79,0.00,,BKN080,0.00,VWS V14.01,2013-04-09 20:02:00,
2013-04-09 13:07:00,48.5,42.3,30.34,ESE,112,0.0,0.0,79,0.00,,BKN080,0.00,VWS V14.01,2013-04-09 20:07:00,
2013-04-09 13:13:00,48.9,42.3,30.34,NNW,338,0.0,0.0,78,0.00,,BKN080,0.00,VWS V14.01,2013-04-09 20:13:00,
2013-04-09 13:18:00,49.1,42.5,30.34,SE,135,0.0,0.0,78,0.00,,BKN080,0.00,VWS V14.01,2013-04-09 20:18:00,
2013-04-09 13:23:00,49.1,42.5,30.34,SSW,202,0.0,0.0,78,0.00,,BKN080,0.00,VWS V14.01,2013-04-09 20:23:00,
2013-04-09 13:28:00,49.2,42.6,30.34,ESE,112,1.5,1.5,78,0.00,,BKN080,0.00,VWS V14.01,2013-04-09 20:28:00,
2013-04-09 13:34:00,49.8,43.2,30.34,ESE,112,0.0,0.0,78,0.00,,BKN080,0.00,VWS V14.01,2013-04-09 20:34:00,
2013-04-09 13:39:00,50.1,43.5,30.33,ESE,112,4.9,4.9,78,0.00,,BKN080,0.00,VWS V14.01,2013-04-09 20:39:00,
2013-04-09 13:44:00,50.5,43.6,30.33,SE,135,0.0,0.0,77,0.00,,BKN080,0.00,VWS V14.01,2013-04-09 20:44:00,
2013-04-09 13:49:00,50.9,44.0,30.32,SE,135,0.0,0.0,77,0.00,,BKN080,0.00,VWS V14.01,2013-04-09 20:49:00,
2013-04-09 13:55:00,51.4,44.1,30.33,SE,135,0.0,0.0,76,0.00,,BKN080,0.00,VWS V14.01,2013-04-09 20:55:00,
2013-04-09 14:00:00,52.3,44.6,30.33,SSE,158,0.0,0.0,75,0.00,,BKN080,0.00,VWS V14.01,2013-04-09 21:00:00,
2013-04-09 14:05:00,52.7,44.7,30.33,WSW,248,0.0,0.0,74,0.00,,OVC060,0.00,VWS V14.01,2013-04-09 21:05:00,
2013-04-09 14:10:00,52.8,44.4,30.33,SE,135,0.0,0.0,73,0.00,,OVC060,0.00,VWS V14.01,2013-04-09 21:10:00,
2013-04-09 14:15:00,52.8,44.4,30.33,East,90,0.0,0.0,73,0.00,,OVC060,0.00,VWS V14.01,2013-04-09 21:15:00,
2013-04-09 14:20:00,52.8,44.4,30.32,ESE,112,0.0,0.0,73,0.00,,OVC060,0.00,VWS V14.01,2013-04-09 21:20:00,
2013-04-09 14:25:00,54.3,45.5,30.33,SE,135,0.8,0.8,72,0.00,,OVC060,0.00,VWS V14.01,2013-04-09 21:25:00,
2013-04-09 14:30:00,55.4,45.4,30.32,SSE,158,0.0,0.0,69,0.00,,OVC060,0.00,VWS V14.01,2013-04-09 21:30:00,
2013-04-09 14:35:00,56.4,46.0,30.32,SE,135,0.0,0.0,68,0.00,,OVC060,0.00,VWS V14.01,2013-04-09 21:35:00,
2013-04-09 14:40:00,56.8,45.6,30.32,SSW,202,0.0,0.0,66,0.00,,OVC060,0.00,VWS V14.01,2013-04-09 21:40:00,
2013-04-09 14:46:00,56.4,44.8,30.32,SE,135,0.0,0.0,65,0.00,,OVC060,0.00,VWS V14.01,2013-04-09 21:46:00,
2013-04-09 14:51:00,56.3,45.1,30.32,South,180,4.2,4.2,66,0.00,,OVC060,0.00,VWS V14.01,2013-04-09 21:51:00,
2013-04-09 14:57:00,55.7,44.5,30.31,SSE,158,0.0,0.0,66,0.00,,OVC060,0.00,VWS V14.01,2013-04-09 21:57:00,
2013-04-09 15:02:00,55.5,44.3,30.31,West,270,0.0,0.0,66,0.00,,OVC060,0.00,VWS V14.01,2013-04-09 22:02:00,
2013-04-09 15:07:00,55.2,44.0,30.30,SSE,158,0.0,0.0,66,0.00,,OVC060,0.00,VWS V14.01,2013-04-09 22:07:00,
2013-04-09 15:12:00,55.0,43.9,30.30,SE,135,0.0,0.0,66,0.00,,OVC060,0.00,VWS V14.01,2013-04-09 22:12:00,
2013-04-09 15:17:00,54.8,43.7,30.30,SSE,158,0.0,0.0,66,0.00,,OVC060,0.00,VWS V14.01,2013-04-09 22:17:00,
2013-04-09 15:23:00,54.6,43.5,30.30,ESE,112,0.0,0.0,66,0.00,,OVC060,0.00,VWS V14.01,2013-04-09 22:23:00,
2013-04-09 15:28:00,54.3,42.8,30.30,SE,135,0.0,2.4,65,0.00,,OVC060,0.00,VWS V14.01,2013-04-09 22:28:00,
2013-04-09 15:34:00,54.1,42.2,30.30,NNE,22,0.0,0.0,64,0.00,,OVC060,0.00,VWS V14.01,2013-04-09 22:34:00,
2013-04-09 15:39:00,53.7,42.2,30.29,SE,135,0.0,4.2,65,0.00,,OVC060,0.00,VWS V14.01,2013-04-09 22:39:00,
2013-04-09 15:44:00,53.7,42.2,30.29,SE,135,0.0,0.0,65,0.00,,OVC060,0.00,VWS V14.01,2013-04-09 22:44:00,
2013-04-09 15:50:00,53.4,42.3,30.29,SE,135,0.0,0.0,66,0.00,,OVC060,0.00,VWS V14.01,2013-04-09 22:50:00,
2013-04-09 15:55:00,53.6,42.5,30.29,SSE,158,0.0,0.0,66,0.00,,OVC060,0.00,VWS V14.01,2013-04-09 22:55:00,
2013-04-09 16:00:00,53.2,42.2,30.29,SSE,158,0.0,0.0,66,0.00,,OVC060,0.00,VWS V14.01,2013-04-09 23:00:00,
2013-04-09 16:05:00,53.2,42.5,30.29,ESE,112,5.1,5.1,67,0.00,,SCT060,0.00,VWS V14.01,2013-04-09 23:05:00,
2013-04-09 16:10:00,53.2,42.2,30.29,ESE,112,0.0,0.0,66,0.00,,SCT060,0.00,VWS V14.01,2013-04-09 23:10:00,
2013-04-09 16:15:00,53.4,42.3,30.29,SE,135,0.0,0.0,66,0.00,,SCT060,0.00,VWS V14.01,2013-04-09 23:15:00,
2013-04-09 16:20:00,53.4,41.9,30.29,SE,135,0.0,0.0,65,0.00,,SCT060,0.00,VWS V14.01,2013-04-09 23:20:00,
2013-04-09 16:25:00,53.4,42.3,30.29,SE,135,0.0,0.0,66,0.00,,SCT060,0.00,VWS V14.01,2013-04-09 23:25:00,
2013-04-09 16:30:00,53.4,42.3,30.29,South,180,0.0,0.0,66,0.00,,SCT060,0.00,VWS V14.01,2013-04-09 23:30:00,
2013-04-09 16:35:00,53.4,42.3,30.29,SSE,158,0.0,0.0,66,0.00,,SCT060,0.00,VWS V14.01,2013-04-09 23:35:00,
2013-04-09 16:40:00,53.4,42.3,30.29,SSE,158,0.0,0.0,66,0.00,,SCT060,0.00,VWS V14.01,2013-04-09 23:40:00,
2013-04-09 16:45:00,53.7,42.6,30.28,SE,135,0.0,0.0,66,0.00,,SCT060,0.00,VWS V14.01,2013-04-09 23:45:00,
2013-04-09 16:50:00,53.7,42.2,30.28,East,90,0.0,0.0,65,0.00,,SCT060,0.00,VWS V14.01,2013-04-09 23:50:00,
2013-04-09 16:55:00,53.4,42.3,30.29,SE,135,0.0,0.0,66,0.00,,SCT060,0.00,VWS V14.01,2013-04-09 23:55:00,
2013-04-09 17:00:00,53.4,42.3,30.28,SSE,158,0.0,0.0,66,0.00,,SCT060,0.00,VWS V14.01,2013-04-10 00:00:00,
2013-04-09 17:05:00,53.2,42.2,30.28,SW,225,0.0,0.0,66,0.00,,SCT060,0.00,VWS V14.01,2013-04-10 00:05:00,
2013-04-09 17:10:00,53.4,42.7,30.28,South,180,0.0,0.0,67,0.00,,SCT060,0.00,VWS V14.01,2013-04-10 00:10:00,
2013-04-09 17:15:00,53.4,42.3,30.27,ESE,112,0.0,1.3,66,0.00,,SCT060,0.00,VWS V14.01,2013-04-10 00:15:00,
2013-04-09 17:20:00,53.4,42.7,30.28,SSE,158,0.0,0.0,67,0.00,,SCT060,0.00,VWS V14.01,2013-04-10 00:20:00,
2013-04-09 17:25:00,53.4,42.3,30.28,SSE,158,0.0,0.0,66,0.00,,SCT060,0.00,VWS V14.01,2013-04-10 00:25:00,
2013-04-09 17:30:00,53.2,42.2,30.27,ESE,112,0.0,0.0,66,0.00,,SCT060,0.00,VWS V14.01,2013-04-10 00:30:00,
2013-04-09 17:35:00,52.8,41.8,30.28,South,180,0.0,0.0,66,0.00,,SCT060,0.00,VWS V14.01,2013-04-10 00:35:00,
2013-04-09 17:40:00,52.7,41.7,30.28,WSW,248,0.0,0.0,66,0.00,,SCT060,0.00,VWS V14.01,2013-04-10 00:40:00,
2013-04-09 17:45:00,52.5,41.9,30.28,South,180,0.0,0.0,67,0.00,,SCT060,0.00,VWS V14.01,2013-04-10 00:45:00,
2013-04-09 17:50:00,52.3,41.7,30.28,SSE,158,5.5,5.5,67,0.00,,SCT060,0.00,VWS V14.01,2013-04-10 00:50:00,
2013-04-09 17:55:00,51.9,42.1,30.28,SE,135,0.0,0.0,69,0.00,,SCT060,0.00,VWS V14.01,2013-04-10 00:55:00,
2013-04-09 18:00:00,51.6,42.2,30.27,SSE,158,0.0,0.0,70,0.00,,OVC080,0.00,VWS V14.01,2013-04-10 01:00:00,
2013-04-09 18:05:00,51.6,42.2,30.27,SSE,158,0.0,0.0,70,0.00,,OVC080,0.00,VWS V14.01,2013-04-10 01:05:00,
2013-04-09 18:10:00,51.4,42.3,30.27,West,270,0.0,0.0,71,0.00,,OVC080,0.00,VWS V14.01,2013-04-10 01:10:00,
2013-04-09 18:15:00,51.4,42.3,30.26,East,90,0.0,0.0,71,0.00,,OVC080,0.00,VWS V14.01,2013-04-10 01:15:00,
2013-04-09 18:20:00,51.2,42.5,30.26,SSE,158,0.0,0.0,72,0.00,,OVC080,0.00,VWS V14.01,2013-04-10 01:20:00,
2013-04-09 18:25:00,50.9,42.2,30.26,SE,135,0.0,0.0,72,0.00,,OVC080,0.00,VWS V14.01,2013-04-10 01:25:00,
2013-04-09 18:30:00,50.9,42.2,30.26,SE,135,0.0,0.0,72,0.00,,OVC080,0.00,VWS V14.01,2013-04-10 01:30:00,
2013-04-09 18:35:00,50.7,42.0,30.26,SSE,158,0.0,0.0,72,0.00,,OVC080,0.00,VWS V14.01,2013-04-10 01:35:00,
2013-04-09 18:40:00,50.5,42.2,30.26,SE,135,0.0,4.4,73,0.00,,OVC080,0.00,VWS V14.01,2013-04-10 01:40:00,
2013-04-09 18:45:00,50.5,42.2,30.26,WSW,248,0.0,0.0,73,0.00,,OVC080,0.00,VWS V14.01,2013-04-10 01:45:00,
2013-04-09 18:50:00,50.5,42.2,30.26,SE,135,0.0,0.0,73,0.00,,OVC080,0.00,VWS V14.01,2013-04-10 01:50:00,
2013-04-09 18:55:00,50.3,41.6,30.25,SSE,158,0.0,0.0,72,0.00,,OVC080,0.00,VWS V14.01,2013-04-10 01:55:00,
2013-04-09 19:00:00,50.1,41.4,30.25,SSE,158,0.0,0.0,72,0.00,,OVC080,0.00,VWS V14.01,2013-04-10 02:00:00,
2013-04-09 19:05:00,50.1,41.4,30.25,ESE,112,0.0,0.0,72,0.00,,OVC080,0.00,VWS V14.01,2013-04-10 02:05:00,
2013-04-09 19:10:00,50.0,41.3,30.25,WNW,292,0.0,0.0,72,0.00,,OVC080,0.00,VWS V14.01,2013-04-10 02:10:00,
2013-04-09 19:15:00,49.8,41.2,30.25,SE,135,0.0,0.0,72,0.00,,OVC080,0.00,VWS V14.01,2013-04-10 02:15:00,
2013-04-09 19:20:00,49.8,41.2,30.24,SSW,202,0.0,0.0,72,0.00,,OVC080,0.00,VWS V14.01,2013-04-10 02:20:00,
2013-04-09 19:25:00,49.8,41.2,30.25,SSW,202,0.0,0.0,72,0.00,,OVC080,0.00,VWS V14.01,2013-04-10 02:25:00,
2013-04-09 19:30:00,49.6,41.0,30.24,SSE,158,0.0,0.0,72,0.00,,OVC080,0.00,VWS V14.01,2013-04-10 02:30:00,
2013-04-09 19:35:00,49.6,41.0,30.24,SSE,158,0.0,0.0,72,0.00,,OVC080,0.00,VWS V14.01,2013-04-10 02:35:00,
2013-04-09 19:40:00,49.6,41.0,30.24,SSE,158,0.0,0.0,72,0.00,,OVC080,0.00,VWS V14.01,2013-04-10 02:40:00,
2013-04-09 19:45:00,49.6,41.0,30.24,SSE,158,4.9,4.9,72,0.00,,OVC080,0.00,VWS V14.01,2013-04-10 02:45:00,
2013-04-09 19:50:00,49.2,40.6,30.24,ESE,112,0.0,0.0,72,0.00,,OVC080,0.00,VWS V14.01,2013-04-10 02:50:00,
2013-04-09 19:55:00,49.1,40.8,30.24,SSE,158,0.0,0.0,73,0.00,,OVC080,0.00,VWS V14.01,2013-04-10 02:55:00,
2013-04-09 20:00:00,49.1,40.8,30.24,ESE,112,0.0,0.0,73,0.00,,OVC080,0.00,VWS V14.01,2013-04-10 03:00:00,
2013-04-09 20:05:00,48.9,40.6,30.24,ESE,112,0.0,0.0,73,0.00,,OVC080,0.00,VWS V14.01,2013-04-10 03:05:00,
2013-04-09 20:10:00,48.7,40.5,30.24,SSW,202,0.0,0.0,73,0.00,,OVC080,0.00,VWS V14.01,2013-04-10 03:10:00,
2013-04-09 20:15:00,48.7,40.5,30.24,SE,135,0.0,0.0,73,0.00,,OVC080,0.00,VWS V14.01,2013-04-10 03:15:00,
2013-04-09 20:20:00,48.7,40.5,30.24,NNE,22,0.0,0.0,73,0.00,,OVC080,0.00,VWS V14.01,2013-04-10 03:20:00,
2013-04-09 20:25:00,48.7,40.5,30.24,SSE,158,0.0,0.0,73,0.00,,OVC080,0.00,VWS V14.01,2013-04-10 03:25:00,
2013-04-09 20:30:00,48.5,40.6,30.24,SSE,158,0.0,0.0,74,0.00,,OVC080,0.00,VWS V14.01,2013-04-10 03:30:00,
2013-04-09 20:35:00,48.3,40.4,30.24,SSE,158,0.0,0.0,74,0.00,,OVC080,0.00,VWS V14.01,2013-04-10 03:35:00,
2013-04-09 20:40:00,48.2,40.3,30.23,SSE,158,0.0,0.0,74,0.00,,OVC080,0.00,VWS V14.01,2013-04-10 03:40:00,
2013-04-09 20:45:00,48.0,40.1,30.23,SSE,158,0.0,0.0,74,0.00,,OVC080,0.00,VWS V14.01,2013-04-10 03:45:00,
2013-04-09 20:50:00,48.0,40.1,30.23,SE,135,0.0,0.0,74,0.00,,OVC080,0.00,VWS V14.01,2013-04-10 03:50:00,
2013-04-09 20:55:00,48.0,40.5,30.23,South,180,0.0,0.0,75,0.00,,OVC080,0.00,VWS V14.01,2013-04-10 03:55:00,
2013-04-09 21:00:00,47.8,40.3,30.23,ENE,68,0.0,0.0,75,0.00,,OVC080,0.00,VWS V14.01,2013-04-10 04:00:00,
2013-04-09 21:01:00,47.8,40.3,30.23,South,180,0.0,0.0,75,0.00,,OVC080,0.00,VWS V14.01,2013-04-10 04:01:00,
2013-04-09 21:03:00,47.8,40.3,30.23,South,180,0.0,0.0,75,0.00,,OVC080,0.00,VWS V14.01,2013-04-10 04:03:00,
2013-04-09 21:08:00,47.8,40.3,30.23,SSE,158,0.0,0.0,75,0.00,,OVC080,0.00,VWS V14.01,2013-04-10 04:08:00,
2013-04-09 21:13:00,47.8,40.3,30.23,ESE,112,0.0,0.0,75,0.00,,OVC080,0.00,VWS V14.01,2013-04-10 04:13:00,
2013-04-09 21:18:00,47.8,40.3,30.23,SSW,202,1.1,1.1,75,0.00,,OVC080,0.00,VWS V14.01,2013-04-10 04:18:00,
2013-04-09 21:23:00,47.6,39.7,30.22,ESE,112,0.0,0.0,74,0.00,,OVC080,0.00,VWS V14.01,2013-04-10 04:23:00,
2013-04-09 21:29:00,47.6,39.7,30.23,ESE,112,0.0,0.0,74,0.00,,OVC080,0.00,VWS V14.01,2013-04-10 04:29:00,
2013-04-09 21:34:00,47.4,39.5,30.23,SSE,158,0.0,0.0,74,0.00,,OVC080,0.00,VWS V14.01,2013-04-10 04:34:00,
2013-04-09 21:39:00,47.4,39.5,30.22,ESE,112,0.0,0.0,74,0.00,,OVC080,0.00,VWS V14.01,2013-04-10 04:39:00,
2013-04-09 21:44:00,47.4,39.5,30.22,SE,135,0.0,0.6,74,0.00,,OVC080,0.00,VWS V14.01,2013-04-10 04:44:00,
2013-04-09 21:49:00,47.3,39.5,30.22,South,180,0.0,0.0,74,0.00,,OVC080,0.00,VWS V14.01,2013-04-10 04:49:00,
2013-04-09 21:55:00,47.1,39.2,30.22,SSE,158,0.0,0.0,74,0.00,,OVC080,0.00,VWS V14.01,2013-04-10 04:55:00,
2013-04-09 22:00:00,47.1,39.2,30.21,South,180,0.0,0.0,74,0.00,,OVC080,0.00,VWS V14.01,2013-04-10 05:00:00,
2013-04-09 22:05:00,47.1,39.2,30.22,SSW,202,0.0,0.0,74,0.00,,OVC041,0.00,VWS V14.01,2013-04-10 05:05:00,
2013-04-09 22:10:00,47.1,39.2,30.21,SE,135,0.0,0.0,74,0.00,,OVC041,0.00,VWS V14.01,2013-04-10 05:10:00,
2013-04-09 22:15:00,47.1,39.2,30.21,SSW,202,0.0,0.0,74,0.00,,OVC041,0.00,VWS V14.01,2013-04-10 05:15:00,
2013-04-09 22:20:00,47.1,39.2,30.21,ESE,112,0.0,1.1,74,0.00,,OVC041,0.00,VWS V14.01,2013-04-10 05:20:00,
2013-04-09 22:25:00,47.1,39.2,30.21,SSW,202,0.0,0.0,74,0.00,,OVC041,0.00,VWS V14.01,2013-04-10 05:25:00,
2013-04-09 22:30:00,47.1,39.2,30.21,SE,135,4.2,4.2,74,0.00,,OVC041,0.00,VWS V14.01,2013-04-10 05:30:00,
2013-04-09 22:35:00,47.1,39.2,30.21,SW,225,0.0,0.0,74,0.00,,OVC041,0.00,VWS V14.01,2013-04-10 05:35:00,
2013-04-09 22:41:00,47.1,39.6,30.21,WSW,248,0.0,1.5,75,0.00,,OVC041,0.00,VWS V14.01,2013-04-10 05:41:00,
2013-04-09 22:46:00,47.1,39.6,30.21,SSW,202,0.0,0.0,75,0.00,,OVC041,0.00,VWS V14.01,2013-04-10 05:46:00,
2013-04-09 22:52:00,46.9,39.4,30.21,WSW,248,0.0,0.0,75,0.00,,OVC041,0.00,VWS V14.01,2013-04-10 05:52:00,
2013-04-09 22:57:00,46.9,39.7,30.21,SSE,158,0.0,0.0,76,0.00,,OVC041,0.00,VWS V14.01,2013-04-10 05:57:00,
2013-04-09 23:02:00,46.9,39.7,30.20,South,180,0.0,0.0,76,0.00,,OVC041,0.00,VWS V14.01,2013-04-10 06:02:00,
2013-04-09 23:07:00,46.7,39.5,30.20,SE,135,0.0,0.0,76,0.00,,OVC041,0.00,VWS V14.01,2013-04-10 06:07:00,
2013-04-09 23:12:00,46.7,39.5,30.20,SSW,202,0.0,0.0,76,0.00,,OVC041,0.00,VWS V14.01,2013-04-10 06:12:00,
2013-04-09 23:18:00,46.5,39.4,30.19,SE,135,0.0,0.0,76,0.00,,OVC041,0.00,VWS V14.01,2013-04-10 06:18:00,
2013-04-09 23:23:00,46.5,39.7,30.19,SE,135,0.0,0.0,77,0.00,,OVC041,0.00,VWS V14.01,2013-04-10 06:23:00,
2013-04-09 23:28:00,46.2,39.4,30.19,South,180,0.0,0.0,77,0.00,,OVC041,0.00,VWS V14.01,2013-04-10 06:28:00,
2013-04-09 23:33:00,46.2,39.7,30.19,ESE,112,0.0,0.0,78,0.00,,OVC041,0.00,VWS V14.01,2013-04-10 06:33:00,
2013-04-09 23:38:00,46.2,39.7,30.19,West,270,0.0,0.0,78,0.00,,OVC041,0.00,VWS V14.01,2013-04-10 06:38:00,
2013-04-09 23:43:00,46.2,39.7,30.19,NE,45,0.0,0.0,78,0.00,,OVC041,0.00,VWS V14.01,2013-04-10 06:43:00,
2013-04-09 23:48:00,46.2,39.7,30.18,SSE,158,0.0,0.0,78,0.00,,OVC041,0.00,VWS V14.01,2013-04-10 06:48:00,
2013-04-09 23:53:00,46.2,39.7,30.18,WSW,248,0.0,0.0,78,0.00,,OVC041,0.00,VWS V14.01,2013-04-10 06:53:00,
2013-04-09 23:59:00,46.2,39.7,30.17,SSW,202,0.0,0.0,78,0.00,,OVC041,0.00,VWS V14.01,2013-04-10 06:59:00,